Regional Weather Roundup
Issued by NWS

Home | Current Version | Previous Version | Text Only | Print | Product List | Glossary Off
Versions: 1 2 3 4 5 6 7 8 9 10 11 12 13 14 15 16 17 18 19 20 21 22 23 24 25 26 27

000
ASUS45 KPSR 270310
RWRAZ

ARIZONA HOURLY REGIONAL WEATHER ROUNDUP
NATIONAL WEATHER SERVICE PHOENIX AZ
800 PM MST FRI AUG 26 2016

NOTE: FAIR INDICATES FEW OR NO CLOUDS BELOW 12,000 FEET WITH NO
SIGNIFICANT WEATHER AND/OR OBSTRUCTIONS TO VISIBILITY.

AZZ001>003-036-270400-
NORTHWEST ARIZONA

CITY           SKY/WX    TMP DP  RH WIND       PRES   REMARKS
BULLHEAD CITY  PTCLDY    95  48  20 SE13      29.79R
KINGMAN        PTCLDY    76  53  44 E7        30.00R
$$

AZZ004>008-015-016-018-270400-
NORTH CENTRAL ARIZONA

CITY           SKY/WX    TMP DP  RH WIND       PRES   REMARKS
GRAND CANYON   CLOUDY    55  50  83 CALM      30.26S
PRESCOTT       CLOUDY    67  55  65 SE5       30.14R
FLAGSTAFF      MOCLDY    51  50  96 CALM      30.28R
PAYSON         PTCLDY    68  52  56 NE6       30.18R
PAGE           CLOUDY    70  52  52 N12       30.09R
$$

AZZ009>014-017-270400-
NORTHEAST ARIZONA

CITY           SKY/WX    TMP DP  RH WIND       PRES   REMARKS
WINSLOW        CLEAR     65  51  60 SW8       30.13S
SAINT JOHNS    PTCLDY    65  47  52 CALM      30.18R
WINDOW ROCK    PTCLDY    61  47  59 CALM      30.23R
SHOW LOW       PTCLDY    55  48  76 S6        30.24S
$$

AZZ023-270400-
GREATER PHOENIX AREA

CITY           SKY/WX    TMP DP  RH WIND       PRES   REMARKS
PHOENIX        MOCLDY    93  59  31 E7        29.81R
BUCKEYE        PTCLDY    91  54  27 NE5       29.83R
GLENDALE       MOCLDY    93  54  26 NW7       29.83S
LUKE AFB       CLEAR     92  55  27 N8        29.81R
DEER VALLEY    PTCLDY    90  53  28 N13       29.84S
SCOTTSDALE     CLEAR     92  52  25 N5        29.86S
MESA-FALCON    MOCLDY   N/A N/A N/A SE6       29.82R
MESA-GATEWAY   CLEAR     84  64  51 E10       29.86R
CHANDLER       PTCLDY    88  66  48 E7        29.83S
$$

AZZ027-028-270400-
SOUTHWEST MARICOPA COUNTY AND PINAL COUNTY

CITY           SKY/WX    TMP DP  RH WIND       PRES   REMARKS
CASA GRANDE    PTCLDY    91  57  31 SE7       29.87S
GILA BEND      FAIR      94  58  29 S3        29.78S
$$

AZZ503-504-507>509-270400-
SOUTHEAST ARIZONA

CITY           SKY/WX    TMP DP  RH WIND       PRES   REMARKS
TUCSON         MOCLDY    87  58  37 E6        29.96R
DAVIS-MONTHAN  CLEAR     83  61  47 E6        29.95R
RYAN FIELD     CLEAR     82  61  47 NW6       29.95R
NOGALES        CLEAR     74  50  42 SE5       30.05R
SIERRA VISTA   PTCLDY    72  55  56 SW5       30.13R
DOUGLAS        CLOUDY    75  58  55 NE5       30.07R
SAFFORD        PTCLDY    72  60  66 W5        30.00R
$$

AZZ020-021-025-026-031-270400-
SOUTHWEST ARIZONA

CITY           SKY/WX    TMP DP  RH WIND       PRES   REMARKS
YUMA           PTCLDY    92  50  23 S7        29.75R
$$

CAZ031-033-041-043-047-048-061-270400-
SOUTHERN CALIFORNIA

CITY           SKY/WX    TMP DP  RH WIND       PRES   REMARKS
DOWNTOWN L.A.  CLEAR     66  57  72 W6        29.93R
L.A. AIRPORT   PTCLDY    65  57  75 W12       29.94R
SAN DIEGO      MOCLDY    68  56  65 W7        29.96R
BURBANK        CLEAR     66  57  72 S7        29.93R
ONTARIO        CLEAR     69  55  60 W13       29.93R
RIVERSIDE      CLEAR     70  55  59 W8        29.93R
PALM SPRINGS   CLEAR     91  50  24 NW18      29.77R
EL CENTRO NAS  CLEAR     92  49  22 S12       29.74R
IMPERIAL       CLEAR     96  55  25 SE12      29.72R
BLYTHE         CLEAR     96  59  29 S12       29.75R
NEEDLES        PTCLDY    95  54  25 S10       29.80R
$$

NVZ020-UTZ003-270400-
SOUTHERN NEVADA-UTAH

CITY           SKY/WX    TMP DP  RH WIND       PRES   REMARKS
LAS VEGAS      MOCLDY    86  46  24 S12G22    29.83R
SALT LAKE CITY PTCLDY    75  27  17 E5        29.98R
$$

NMZ009-TXZ055-270400-
NEW MEXICO-WEST TEXAS

CITY           SKY/WX    TMP DP  RH WIND       PRES   REMARKS
ALBUQUERQUE    MOCLDY    73  46  38 SE7       30.16R
EL PASO        PTCLDY    81  54  39 N15       30.06R
$$


........................KEY........................
SKY/WX - SKY CONDITION/WEATHER
TMP    - TEMPERATURE IN FAHRENHEIT
DP     - DEW POINT IN FAHRENHEIT
RH     - RELATIVE HUMIDITY IN PERCENT
WIND   - DIRECTION AND SPEED IN MILES PER HOUR (MPH)
VRB    - VARIABLE WIND DIRECTION
PRES   - MEAN SEA LEVEL PRESSURE IN INCHES OF MERCURY
         F - FALLING PRESSURE   R - RISING PRESSURE
         S - STEADY PRESSURE
VSB    - VISIBILITY IN MILES
HX     - HEAT INDEX IN FAHRENHEIT
WCI    - WIND CHILL INDEX IN FAHRENHEIT
TC     - TEMPERATURE IN CELSIUS WHICH IS ALSO KNOWN AS
         TEMPERATURE IN CENTIGRADE
AFB    - AIR FORCE BASE
         LUKE AFB IS LUKE AIR FORCE BASE
         DAVIS-MONTHAN IS DAVIS-MONTHAN AIR FORCE BASE
NAS    - NAVAL AIR STATION
         EL CENTRO NAS IS EL CENTRO NAVAL AIR STATION
N/A    - NOT AVAILABLE





USA.gov is the U.S. government's official web portal to all federal, state and local government web resources and services.